Regional Weather Roundup
Issued by NWS

Home | Current Version | Previous Version | Graphics & Text | Print | Product List | Glossary On
Versions: 1 2 3 4 5 6 7 8 9 10 11 12 13 14 15 16 17 18 19 20 21 22 23 24 25 26 27 28 29 30 31 32 33 34 35 36 37 38 39 40 41 42 43 44 45 46 47 48 49 50
000
ASUS43 KFSD 011810
RWRSD

WEATHER ROUNDUP FOR SOUTH DAKOTA
NATIONAL WEATHER SERVICE SIOUX FALLS SD
100 PM CDT WED APR 01 2015

NOTE: "FAIR" INDICATES FEW OR NO CLOUDS BELOW 12,000 FEET WITH NO
SIGNIFICANT WEATHER AND/OR OBSTRUCTIONS TO VISIBILITY.


SDZ001>005-009-010-012>017-011900-
NORTHWEST AND NORTH CENTRAL SOUTH DAKOTA

CITY           SKY/WX    TMP DP  RH WIND       PRES   REMARKS
BUFFALO          N/A     54  22  28 NW41G51   29.64R
FAITH            N/A     59  25  27 NW32G41   29.65R
MOBRIDGE       MOSUNNY   63  38  39 NW26G39   29.53R
$$

SDZ012>016-024>037-041>051-057-063-072>074-011900-
SOUTHWEST AND SOUTH CENTRAL SOUTH DAKOTA

CITY           SKY/WX    TMP DP  RH WIND       PRES   REMARKS
RAPID CTY ARPT MOSUNNY   58  33  39 N35G41    29.68S
PIERRE         CLOUDY    62  39  42 NW24G36   29.58R
CUSTER         MOSUNNY   58  28  32 SW10G21   29.71R
ELLSWORTH AFB  MOSUNNY   57  35  43 NW29G37   29.69S
PHILIP         PTSUNNY   63  34  33 NW28G39   29.64R
PINE RIDGE     PTSUNNY   61  36  39 N13       29.71R
SPEARFISH      CLOUDY    46  28  49 NW21G28   29.79R
WINNER         FAIR      66  37  34 W29G36    29.60R
$$

SDZ004>011-016>023-039-040-011900-
NORTHEAST SOUTH DAKOTA

CITY           SKY/WX    TMP DP  RH WIND       PRES   REMARKS
ABERDEEN       LGT RAIN  67  32  27 NW18G24   29.44R
WATERTOWN      FAIR      67  43  41 SW23G31   29.48R
BROOKINGS      FAIR      73  45  35 S32G41    29.50F
SISSETON         N/A     67  41  38 W31G43    29.35S
$$

SDZ017-020-022-023-036>040-048>070-011900-
SOUTHEAST SOUTH DAKOTA

CITY           SKY/WX    TMP DP  RH WIND       PRES   REMARKS
SIOUX FALLS    PTSUNNY   78  43  28 S17G36    29.55F
HURON          CLOUDY    74  37  26 W20G28    29.48R
CHAMBERLAIN    CLOUDY    64  37  38 W18G31    29.56R
MITCHELL       CLOUDY    77  41  27 SW23G30   29.49F
YANKTON        FAIR      79  45  29 S21G37    29.55F
$$

ABBREVIATIONS USED IN REMARKS
   TC - TEMPERATURE IN CELSIUS
  WCI - WIND CHILL INDEX
   HX - HEAT INDEX
  VSB - VISIBILITY



USA.gov is the U.S. government's official web portal to all federal, state and local government web resources and services.